Date String (YYYY-MM-DD hh:mm:ss) UTC,Instrument flags,absolute air pressure of the measurement (hPa),sample flow rate (lpm),inlet stack bypass flow (lpm),air temperature of the measurement (°C),ambient temperature measured by the external sensor (°C),aerosol sample conditioner tube jacket temperature (°C),OPC LED temperature (°C),internal box temperature (°C),relative humidity of the measurement (%),span deviation,mass concentration of particles derived from Lorenz-Mie calculation of OPC scattering (μg/m³),mass concentration of particles derived from Lorenz-Mie calculation of OPC scattering (μg/m³),mass concentration of particles derived from Lorenz-Mie calculation of OPC scattering (μg/m³)
DateTimeUTC,F1_M11,P_M11,Q1_M11,Q2_M11,T1_M11,T2_M11,T3_M11,T4_M11,T5_M11,U1_M11,ZSPAN_M11,X0_M11,X2_M11,X1_M11
2024-04-27 13:00:00,SystemResetWarning,0822.1,5.00,000.00,023.2,022.3,000.0,031.8,024.9,026.9,0000.0,0005.14,0003.21,0002.63
2024-04-27 13:01:00,SystemResetWarning,0822.1,5.01,000.00,023.1,022.3,000.0,031.8,024.9,026.8,0000.0,0006.03,0003.17,0002.56
2024-04-27 13:02:00,SystemResetWarning,0822.0,5.00,000.00,023.1,022.3,000.0,031.7,024.9,026.7,0000.0,0005.89,0003.11,0002.47
2024-04-27 13:03:00,SystemResetWarning,0822.0,4.99,000.00,023.1,022.3,000.0,031.7,024.9,026.5,0000.0,0005.86,0003.05,0002.35
2024-04-27 13:04:00,SystemResetWarning,0822.1,4.99,000.00,023.1,022.2,000.0,031.7,024.8,026.3,0000.0,0005.90,0002.90,0002.22
2024-04-27 13:05:00,SystemResetWarning,0822.1,5.00,000.00,023.1,022.2,000.0,031.7,024.8,026.2,0000.0,0005.68,0002.71,0002.08
2024-04-27 13:06:00,SystemResetWarning,0822.1,5.00,000.00,023.1,022.2,000.0,031.7,024.8,026.1,0000.0,0005.51,0002.57,0001.94
2024-04-27 13:07:00,SystemResetWarning,0822.1,5.00,000.00,023.0,022.1,000.0,031.7,024.8,026.0,0000.0,0005.10,0002.36,0001.80
2024-04-27 13:08:00,SystemResetWarning,0822.3,5.00,000.00,023.0,022.1,000.0,031.6,024.7,026.0,0000.0,0004.88,0002.18,0001.65
2024-04-27 13:09:00,SystemResetWarning,0822.2,5.00,000.00,023.0,022.1,000.0,031.6,024.7,026.1,0000.0,0004.81,0002.04,0001.51
2024-04-27 13:10:00,SystemResetWarning,0822.2,5.00,000.00,023.0,022.1,000.0,031.6,024.7,026.1,0000.0,0004.61,0001.88,0001.38
2024-04-27 13:11:00,SystemResetWarning,0822.3,5.00,000.00,023.0,022.0,000.0,031.6,024.7,026.2,0000.0,0004.35,0001.75,0001.26
2024-04-27 13:12:00,SystemResetWarning,0822.3,4.99,000.00,022.9,022.0,000.0,031.6,024.6,026.3,0000.0,0002.81,0001.61,0001.17
2024-04-27 13:13:00,SystemResetWarning,0822.4,5.00,000.00,022.9,022.0,000.0,031.5,024.6,026.6,0000.0,0002.71,0001.54,0001.13
2024-04-27 13:14:00,SystemResetWarning,0822.4,5.00,000.00,022.9,022.0,000.0,031.5,024.6,027.3,0000.0,0002.81,0001.54,0001.13
2024-04-27 13:15:00,SystemResetWarning,0822.4,5.00,000.00,022.9,022.0,000.0,031.5,024.6,026.9,0000.0,0002.69,0001.61,0001.20
2024-04-27 13:16:00,SystemResetWarning,0822.4,4.99,000.00,022.9,022.0,000.0,031.5,024.6,026.8,0000.0,0002.90,0001.76,0001.28
2024-04-27 13:17:00,SystemResetWarning,0822.4,5.01,000.00,022.9,022.0,000.0,031.5,024.6,026.6,0000.0,0003.00,0001.85,0001.38
2024-04-27 13:18:00,SystemResetWarning,0822.4,5.01,000.00,022.8,022.0,000.0,031.5,024.6,026.4,0000.0,0003.08,0001.95,0001.49
2024-04-27 13:19:00,SystemResetWarning,0822.4,5.00,000.00,022.8,022.0,000.0,031.4,024.6,026.4,0000.0,0003.19,0002.05,0001.59
2024-04-27 13:20:00,SystemResetWarning,0822.4,4.98,000.00,022.8,021.9,000.0,031.4,024.6,026.3,0000.0,0003.20,0002.15,0001.70
2024-04-27 13:21:00,SystemResetWarning,0823.0,5.00,000.00,022.8,021.9,000.0,031.4,024.6,026.4,0000.0,0003.31,0002.26,0001.81
2024-04-27 13:22:00,SystemResetWarning,0822.6,5.01,000.00,022.8,021.9,000.0,031.4,024.5,026.3,0000.0,0003.49,0002.38,0001.90
2024-04-27 13:23:00,SystemResetWarning,0822.8,5.01,000.00,022.8,021.9,000.0,031.4,024.5,026.1,0000.0,0003.77,0002.53,0001.99
2024-04-27 13:24:00,SystemResetWarning,0822.6,4.99,000.00,022.7,021.9,000.0,031.4,024.5,026.0,0000.0,0003.85,0002.59,0002.05
2024-04-27 13:25:00,SystemResetWarning,0822.6,4.99,000.00,022.7,021.8,000.0,031.4,024.5,025.7,0000.0,0003.89,0002.63,0002.11
2024-04-27 13:26:00,SystemResetWarning,0822.8,5.00,000.00,022.7,021.8,000.0,031.3,024.5,025.6,0000.0,0003.95,0002.69,0002.14
2024-04-27 13:27:00,SystemResetWarning,0823.0,5.01,000.00,022.7,021.8,000.0,031.3,024.4,025.3,0000.0,0003.94,0002.69,0002.16
2024-04-27 13:28:00,SystemResetWarning,0822.7,5.00,000.00,022.6,021.8,000.0,031.3,024.4,025.2,0000.0,0004.03,0002.74,0002.19
2024-04-27 13:29:00,SystemResetWarning,0822.7,4.98,000.00,022.6,021.7,000.0,031.3,024.4,025.2,0000.0,0004.18,0002.77,0002.21
2024-04-27 13:30:00,SystemResetWarning,0822.6,4.98,000.00,022.6,021.7,000.0,031.3,024.3,025.1,0000.0,0004.30,0002.82,0002.23
2024-04-27 13:31:00,SystemResetWarning,0822.6,5.02,000.00,022.6,021.7,000.0,031.2,024.3,025.1,0000.0,0004.42,0002.88,0002.25
2024-04-27 13:32:00,SystemResetWarning,0822.7,5.01,000.00,022.6,021.7,000.0,031.2,024.3,025.2,0000.0,0004.58,0002.99,0002.30
2024-04-27 13:33:00,SystemResetWarning,0822.7,4.99,000.00,022.5,021.6,000.0,031.2,024.2,025.3,0000.0,0004.58,0003.03,0002.35
2024-04-27 13:34:00,SystemResetWarning,0823.0,5.00,000.00,022.5,021.6,000.0,031.2,024.3,025.3,0000.0,0004.71,0003.11,0002.42
2024-04-27 13:35:00,SystemResetWarning,0822.9,5.00,000.00,022.5,021.6,000.0,031.2,024.3,025.4,0000.0,0005.04,0003.23,0002.57
2024-04-27 13:36:00,SystemResetWarning,0822.9,5.01,000.00,022.5,021.6,000.0,031.1,024.2,025.4,0000.0,0005.22,0003.32,0002.73
2024-04-27 13:37:00,SystemResetWarning,0822.9,5.00,000.00,022.5,021.6,000.0,031.1,024.2,025.4,0000.0,0005.50,0003.43,0002.89
2024-04-27 13:38:00,SystemResetWarning,0823.1,5.00,000.00,022.5,021.6,000.0,031.1,024.2,025.5,0000.0,0005.69,0003.51,0003.02
2024-04-27 13:39:00,SystemResetWarning,0823.0,5.00,000.00,022.4,021.6,000.0,031.1,024.2,025.6,0000.0,0006.05,0003.63,0003.13
2024-04-27 13:40:00,SystemResetWarning,0823.0,5.00,000.00,022.4,021.6,000.0,031.1,024.2,025.6,0000.0,0006.26,0003.71,0003.20
2024-04-27 13:41:00,SystemResetWarning,0822.9,5.00,000.00,022.4,021.6,000.0,031.1,024.2,025.7,0000.0,0006.51,0003.81,0003.28
2024-04-27 13:42:00,SystemResetWarning,0823.0,5.00,000.00,022.4,021.6,000.0,031.1,024.2,025.8,0000.0,0006.76,0003.90,0003.37
2024-04-27 13:43:00,SystemResetWarning,0823.0,5.00,000.00,022.4,021.6,000.0,031.1,024.2,025.8,0000.0,0007.17,0004.02,0003.46
2024-04-27 13:44:00,SystemResetWarning,0823.0,5.00,000.00,022.4,021.6,000.0,031.0,024.2,025.9,0000.0,0007.41,0004.13,0003.56
2024-04-27 13:45:00,SystemResetWarning,0823.0,5.00,000.00,022.4,021.6,000.0,031.0,024.2,026.0,0000.0,0007.58,0004.25,0003.66
2024-04-27 13:46:00,SystemResetWarning,0823.0,5.00,000.00,022.4,021.6,000.0,031.0,024.2,026.1,0000.0,0007.75,0004.35,0003.73
2024-04-27 13:47:00,SystemResetWarning,0823.0,5.01,000.00,022.4,021.6,000.0,031.0,024.2,026.1,0000.0,0007.89,0004.44,0003.80
2024-04-27 13:48:00,SystemResetWarning,0823.0,5.01,000.00,022.4,021.6,000.0,031.0,024.2,026.3,0000.0,0008.09,0004.54,0003.85
2024-04-27 13:49:00,SystemResetWarning,0823.0,5.00,000.00,022.4,021.6,000.0,031.0,024.2,026.3,0000.0,0008.34,0004.65,0003.90
2024-04-27 13:50:00,SystemResetWarning,0823.1,4.99,000.00,022.4,021.5,000.0,031.0,024.2,026.3,0000.0,0008.46,0004.74,0003.97
2024-04-27 13:51:00,SystemResetWarning,0823.3,4.99,000.00,022.3,021.5,000.0,031.0,024.2,026.4,0000.0,0008.60,0004.86,0004.04
2024-04-27 13:52:00,SystemResetWarning,0823.3,5.00,000.00,022.4,021.5,000.0,031.0,024.2,026.6,0000.0,0008.76,0004.95,0004.10
2024-04-27 13:53:00,SystemResetWarning,0823.4,5.00,000.00,022.4,021.6,000.0,031.0,024.2,027.2,0000.0,0008.87,0005.04,0004.15
2024-04-27 13:54:00,SystemResetWarning,0823.4,5.00,000.00,022.4,021.5,000.0,031.0,024.2,027.8,0000.0,0009.07,0005.12,0004.20
2024-04-27 13:55:00,SystemResetWarning,0823.4,5.00,000.00,022.4,021.6,000.0,031.0,024.2,027.5,0000.0,0009.24,0005.23,0004.25
2024-04-27 13:56:00,SystemResetWarning,0823.4,5.00,000.00,022.4,021.6,000.0,031.0,024.2,027.4,0000.0,0009.28,0005.27,0004.28
2024-04-27 13:57:00,SystemResetWarning,0823.5,5.00,000.00,022.3,021.6,000.0,031.0,024.2,027.2,0000.0,0009.28,0005.27,0004.29
2024-04-27 13:58:00,SystemResetWarning,0823.5,5.00,000.00,022.4,021.6,000.0,031.0,024.2,027.3,0000.0,0009.36,0005.30,0004.31
2024-04-27 13:59:00,SystemResetWarning,0823.5,4.99,000.00,022.4,021.6,000.0,031.0,024.2,027.1,0000.0,0009.42,0005.34,0004.33
